CXK429 KRDU-

Flight info

Callsign CXK429
Flight time N/A
Altitude VFR/025
Route VFR SW
Aircraft SR20/L-VGD/C

Departure

Time 2026-04-30 02:29
Airport Raleigh-Durham International Airport (KRDU)

Arrival

Time N/A
Airport -
Time Latitude Longitude Altitude Speed Heading
2026-04-30 02:25 35.87940 -78.78439 422 ft 0 kts 225°
2026-04-30 02:25 35.87925 -78.78448 422 ft 1 kts 175°
2026-04-30 02:26 35.87906 -78.78429 422 ft 8 kts 146°
2026-04-30 02:26 35.87833 -78.78369 425 ft 10 kts 129°
2026-04-30 02:26 35.87878 -78.78287 424 ft 18 kts 46°
2026-04-30 02:26 35.87884 -78.78246 423 ft 4 kts 133°
2026-04-30 02:27 35.87845 -78.78206 423 ft 1 kts 140°
2026-04-30 02:27 35.87845 -78.78205 423 ft 0 kts 139°
2026-04-30 02:27 35.87863 -78.78189 422 ft 9 kts 25°
2026-04-30 02:27 35.87935 -78.78107 418 ft 11 kts 50°
2026-04-30 02:28 35.87972 -78.78046 417 ft 6 kts 74°
2026-04-30 02:28 35.87942 -78.77982 415 ft 17 kts 139°
2026-04-30 02:28 35.87775 -78.78106 420 ft 60 kts 229°
2026-04-30 02:28 35.87363 -78.78632 509 ft 105 kts 225°
2026-04-30 02:29 35.86804 -78.79324 828 ft 116 kts 223°
2026-04-30 02:29 35.86234 -78.80035 1236 ft 118 kts 222°
2026-04-30 02:29 35.85638 -78.80775 1502 ft 130 kts 226°
2026-04-30 02:29 35.84949 -78.81581 1739 ft 138 kts 224°
2026-04-30 02:30 35.84202 -78.82403 1889 ft 149 kts 223°
2026-04-30 02:30 35.83380 -78.83195 2161 ft 148 kts 219°
2026-04-30 02:30 35.82520 -78.83873 2422 ft 150 kts 213°
2026-04-30 02:30 35.81500 -78.84424 2398 ft 169 kts 200°
2026-04-30 02:31 35.80544 -78.85101 2780 ft 151 kts 221°
2026-04-30 02:31 35.79722 -78.85860 3129 ft 145 kts 221°
2026-04-30 02:31 35.78912 -78.86587 3398 ft 145 kts 221°
2026-04-30 02:31 35.78146 -78.87382 3656 ft 141 kts 237°
2026-04-30 02:32 35.77603 -78.88382 3930 ft 140 kts 241°
2026-04-30 02:32 35.77064 -78.89387 4196 ft 140 kts 240°
2026-04-30 02:32 35.76513 -78.90391 4435 ft 141 kts 241°
2026-04-30 02:32 35.75953 -78.91422 4503 ft 152 kts 241°
2026-04-30 02:33 35.75354 -78.92551 4538 ft 158 kts 246°
2026-04-30 02:33 35.75278 -78.93848 4592 ft 154 kts 289°
2026-04-30 02:33 35.75925 -78.94923 4600 ft 159 kts 316°
2026-04-30 02:33 35.76781 -78.95801 4569 ft 164 kts 311°
2026-04-30 02:34 35.77023 -78.97131 4446 ft 177 kts 251°
2026-04-30 02:34 35.76013 -78.98048 4386 ft 188 kts 210°
2026-04-30 02:34 35.74871 -78.98720 4503 ft 178 kts 212°
2026-04-30 02:34 35.73813 -78.99476 4497 ft 169 kts 237°
2026-04-30 02:35 35.74102 -79.00536 4542 ft 163 kts 347°
2026-04-30 02:35 35.74726 -78.99487 4497 ft 193 kts 109°
2026-04-30 02:35 35.73649 -78.99051 4452 ft 175 kts 212°
2026-04-30 02:35 35.72609 -78.98846 4497 ft 188 kts 105°
2026-04-30 02:36 35.73276 -78.98251 4494 ft 151 kts 299°
2026-04-30 02:36 35.72660 -78.99208 4517 ft 166 kts 215°
2026-04-30 02:36 35.71831 -79.00010 4897 ft 128 kts 270°
2026-04-30 02:36 35.72360 -79.00515 5309 ft 123 kts 348°
2026-04-30 02:37 35.73282 -79.00383 5295 ft 145 kts 359°
2026-04-30 02:37 35.74311 -79.00191 5415 ft 149 kts 11°
2026-04-30 02:37 35.75167 -78.99368 5501 ft 163 kts 40°
2026-04-30 02:37 35.75956 -78.98304 5511 ft 170 kts 40°
2026-04-30 02:38 35.76770 -78.97205 5517 ft 175 kts 40°
2026-04-30 02:38 35.77604 -78.96091 5511 ft 178 kts 40°
2026-04-30 02:38 35.78458 -78.94958 5511 ft 179 kts 40°
2026-04-30 02:38 35.79301 -78.93854 5509 ft 181 kts 40°
2026-04-30 02:39 35.80152 -78.92730 5504 ft 181 kts 40°
2026-04-30 02:39 35.81024 -78.91585 5500 ft 181 kts 40°
2026-04-30 02:39 35.81879 -78.90446 5511 ft 182 kts 40°
2026-04-30 02:39 35.82744 -78.89293 5508 ft 182 kts 41°
2026-04-30 02:40 35.83486 -78.88017 5510 ft 185 kts 50°
2026-04-30 02:40 35.84197 -78.86687 5508 ft 186 kts 51°
2026-04-30 02:40 35.84911 -78.85354 5508 ft 186 kts 51°
2026-04-30 02:40 35.85629 -78.84007 5507 ft 186 kts 50°
2026-04-30 02:41 35.86343 -78.82681 5507 ft 186 kts 50°
2026-04-30 02:41 35.87048 -78.81352 5508 ft 186 kts 51°
2026-04-30 02:41 35.87765 -78.80026 5508 ft 186 kts 50°
2026-04-30 02:41 35.88482 -78.78680 5508 ft 186 kts 50°
2026-04-30 02:42 35.89180 -78.77377 5506 ft 185 kts 50°
2026-04-30 02:42 35.89902 -78.76045 5503 ft 186 kts 50°
2026-04-30 02:42 35.90588 -78.74756 5502 ft 186 kts 50°
2026-04-30 02:42 35.91302 -78.73434 5499 ft 185 kts 47°
2026-04-30 02:43 35.92314 -78.72625 5500 ft 168 kts
2026-04-30 02:43 35.93275 -78.72878 5481 ft 121 kts 317°
2026-04-30 02:43 35.93583 -78.73645 5473 ft 91 kts 271°
2026-04-30 02:43 35.93309 -78.74227 5509 ft 76 kts 225°
2026-04-30 02:44 35.92831 -78.74540 5494 ft 77 kts 220°
2026-04-30 02:44 35.92365 -78.74825 5485 ft 73 kts 220°
2026-04-30 02:44 35.91910 -78.75085 5488 ft 70 kts 220°
2026-04-30 02:44 35.91475 -78.75324 5471 ft 64 kts 226°